Location: Bois de la Silve
(44.4667°N, 6.7833°E)
Time: 07:37:57
(UTC+00:00)

Cosmos 1763 Rocket - Pass Details

Date: 14 July 2020
Orbit: 732 x 781 km, 74.0° (Epoch: 14 August)

Event Time Altitude Azimuth Distance (km) Brightness Sun altitude
Rises 02:22:54 0° 340° (NNW) 3,240 7.2 -14.0°
Reaches altitude 10° 02:25:17 10° 343° (NNW) 2,317 6.4 -13.8°
Maximum altitude 02:30:33 72° 68° (ENE) 818 3.8 -13.2°
Drops below altitude 10° 02:35:49 10° 153° (SSE) 2,324 5.8 -12.5°
Sets 02:38:13 0° 155° (SSE) 3,250 6.5 -12.3°
